[[{"header":{"parameterUnit":"m.s-1","parameterCategory":1,"la1":30.2992,"la2":30.254,"lo1":-89.0895,"lo2":-89.0443,"dy":0.0025,"dx":0.0025,"nx":19,"ny":19,"refTime":"2026-04-09T09:00:00:Z","depth":0,"parameterNumber":2,"parameterNumberName":"U-component_of_WINDS"},"data":[0,0,0,-0.8639,-0.8639,-0.8599,-0.8599,-0.8571,-0.8571,0,0,0,0,0,0,0,0,0,0,0,-0.8663,-0.8664,-0.8639,-0.8639,-0.8599,-0.8599,-0.8571,-0.8571,0,0,0,0,0,0,0,0,0,0,0,-0.8663,-0.8663,-0.8664,-0.8639,-0.8599,-0.8599,-0.8571,-0.8593,0,0,0,0,0,0,0,0,0,0,-0.8628,-0.8662,-0.8663,-0.8664,-0.8638,-0.86,-0.8599,-0.8594,-0.8592,-0.8598,0,-0.8606,0,-0.8589,-0.8571,-0.8571,0,0,0,-0.863,-0.8664,-0.8642,-0.8664,-0.8638,-0.86,-0.8615,-0.8593,-0.859,-0.8596,-0.8606,-0.8604,-0.8588,-0.8571,-0.8571,-0.8637,-0.8637,0,0,-0.8632,-0.8663,-0.8643,-0.8641,-0.8647,-0.8616,-0.8613,-0.8591,-0.8604,-0.8606,-0.8603,-0.8588,-0.8571,-0.8571,-0.8636,-0.8637,0,0,0,-0.8644,-0.8665,-0.8643,-0.8642,-0.8634,-0.8615,-0.8612,-0.8605,-0.8595,-0.8603,-0.8587,-0.8571,-0.8571,-0.8635,-0.8636,-0.8703,0,0,0,-0.8645,-0.8672,-0.8645,-0.8664,-0.8635,-0.8619,-0.8628,-0.8597,-0.8593,-0.8587,-0.8571,-0.857,-0.8634,-0.8636,-0.87,-0.873,0,0,0,-0.8662,-0.8674,-0.8672,-0.8665,-0.8649,-0.8618,-0.8607,-0.8595,-0.8585,-0.8571,-0.857,-0.8634,-0.8635,-0.8696,-0.8725,-0.8758,0,0,0,-0.8689,-0.8732,-0.8674,-0.8717,-0.865,-0.866,-0.8607,-0.8612,-0.8608,-0.8571,-0.8634,-0.8636,-0.8695,-0.8721,-0.8755,-0.8792,-0.881,0,0,-0.8761,-0.8742,-0.8765,-0.8712,-0.874,-0.8663,-0.8701,-0.8668,-0.8638,-0.8639,-0.864,-0.8701,-0.8724,-0.8757,-0.8899,-0.8914,0,0,0,-0.8799,-0.8816,-0.8816,-0.8814,-0.8789,-0.8771,-0.8729,-0.8717,-0.8716,-0.8645,-0.872,-0.8733,-0.8751,-0.8768,-0.878,-0.8794,-0.8645,-0.8645,-0.8644,-0.8947,-0.8906,-0.8942,-0.8897,-0.8896,-0.8852,-0.8847,-0.8824,-0.8783,-0.8802,-0.8802,-0.8893,-0.8914,-0.8923,-0.8938,-0.8817,-0.8818,-0.8818,-0.8818,-0.9051,-0.9069,-0.9014,-0.9029,-0.8987,-0.8999,-0.8959,-0.893,-0.8937,-0.8889,-0.8903,-0.8856,-0.894,-0.8952,-0.8823,-0.8822,-0.8821,-0.8821,-0.8821,-0.9145,-0.9147,-0.9131,-0.9124,-0.9123,-0.9076,-0.9085,-0.9045,-0.9009,-0.9022,-0.9019,-0.9018,-0.9013,-0.9023,-0.9024,-0.9024,-0.9024,-0.9024,-0.9025,-0.9249,-0.9229,-0.9241,-0.9219,-0.9213,-0.92,-0.9157,-0.915,-0.9133,-0.9104,-0.9104,-0.9063,-0.8955,-0.893,-0.9029,-0.9029,-0.9028,-0.9027,-0.9027,-0.9372,-0.9338,-0.9356,-0.935,-0.9322,-0.9325,-0.9274,-0.9265,-0.9253,-0.9259,-0.9215,-0.9142,-0.912,-0.9109,-0.9088,-0.9222,-0.9222,-0.9222,-0.9222,-0.9452,-0.9437,-0.9447,-0.944,-0.9429,-0.9385,-0.941,-0.9377,-0.9339,-0.933,-0.9304,-0.9272,-0.9264,-0.9247,-0.9234,-0.9213,-0.9376,-0.9377,-0.9377,-0.9526,-0.9508,-0.9535,-0.9496,-0.9472,-0.9452,-0.9474,-0.947,-0.9419,-0.9382,-0.9322,-0.9316,-0.9264,-0.9249,-0.9212,-0.9193,-0.9155,0,0]},{"header":{"parameterUnit":"m.s-1","parameterCategory":1,"la1":30.2992,"la2":30.254,"lo1":-89.0895,"lo2":-89.0443,"dy":0.0025,"dx":0.0025,"nx":19,"ny":19,"refTime":"2026-04-09T09:00:00:Z","depth":0,"parameterNumber":3,"parameterNumberName":"V-component_of_WINDS"},"data":[0,0,0,0.2609,0.2609,0.2615,0.2615,0.2618,0.2618,0,0,0,0,0,0,0,0,0,0,0,0.2606,0.2606,0.2609,0.2609,0.2615,0.2615,0.2618,0.2618,0,0,0,0,0,0,0,0,0,0,0,0.2606,0.2606,0.2606,0.2609,0.2615,0.2615,0.2618,0.2615,0,0,0,0,0,0,0,0,0,0,0.261,0.2606,0.2606,0.2606,0.2609,0.2615,0.2615,0.2615,0.2615,0.2615,0,0.2614,0,0.2616,0.2618,0.2618,0,0,0,0.261,0.2606,0.2609,0.2606,0.2609,0.2615,0.2612,0.2615,0.2616,0.2615,0.2614,0.2614,0.2616,0.2618,0.2618,0.2613,0.2613,0,0,0.261,0.2606,0.2609,0.2609,0.2609,0.2612,0.2612,0.2616,0.2614,0.2614,0.2614,0.2616,0.2618,0.2618,0.2614,0.2613,0,0,0,0.2608,0.2605,0.2608,0.2609,0.261,0.2612,0.2613,0.2614,0.2615,0.2614,0.2616,0.2618,0.2618,0.2614,0.2614,0.2607,0,0,0,0.2608,0.2605,0.2608,0.2606,0.261,0.2612,0.2611,0.2615,0.2615,0.2616,0.2618,0.2618,0.2614,0.2614,0.2608,0.2605,0,0,0,0.2606,0.2604,0.2605,0.2606,0.2608,0.2612,0.2614,0.2615,0.2617,0.2618,0.2618,0.2614,0.2614,0.2608,0.2605,0.2603,0,0,0,0.2602,0.2598,0.2605,0.2601,0.2608,0.2609,0.2614,0.2614,0.2615,0.2618,0.2614,0.2614,0.2608,0.2606,0.2603,0.26,0.2599,0,0,0.2595,0.2597,0.2595,0.2601,0.26,0.2608,0.2606,0.2609,0.2612,0.2613,0.2613,0.2608,0.2605,0.2603,0.2592,0.259,0,0,0,0.2592,0.259,0.2591,0.2592,0.2596,0.2599,0.2603,0.2605,0.2606,0.2612,0.2606,0.2605,0.2604,0.2603,0.2601,0.2601,0.2613,0.2613,0.2613,0.2575,0.2581,0.2578,0.2585,0.2586,0.2592,0.2593,0.2596,0.26,0.2599,0.2599,0.2591,0.259,0.2589,0.2588,0.2598,0.2598,0.2598,0.2598,0.2565,0.2564,0.2571,0.2572,0.2577,0.2577,0.2583,0.2586,0.2587,0.2591,0.259,0.2595,0.2588,0.2587,0.2597,0.2597,0.2597,0.2597,0.2597,0.2555,0.2555,0.2558,0.2562,0.2564,0.257,0.2571,0.2576,0.258,0.258,0.2581,0.2581,0.2582,0.258,0.258,0.258,0.258,0.258,0.258,0.2543,0.2547,0.2547,0.2552,0.2554,0.2557,0.2564,0.2566,0.257,0.2573,0.2573,0.2578,0.2586,0.2588,0.2579,0.258,0.258,0.258,0.258,0.2531,0.2535,0.2536,0.2538,0.2544,0.2546,0.2553,0.2557,0.256,0.256,0.2565,0.2571,0.2573,0.2574,0.2575,0.2564,0.2564,0.2564,0.2564,0.2522,0.2525,0.2527,0.2531,0.2535,0.2541,0.2542,0.2548,0.2554,0.2556,0.2559,0.2561,0.2562,0.2564,0.2565,0.2567,0.2553,0.2553,0.2553,0.2516,0.2518,0.2518,0.2526,0.2531,0.2536,0.2537,0.2541,0.2549,0.2553,0.2558,0.2558,0.2563,0.2564,0.2568,0.2569,0.2572,0,0]}]]